Year,Month,Day,Hour,Minute,Value (Times are PST for temperature in C)
2012,09,20,10,40,19.70
2012,09,20,10,41,19.70
2012,09,20,10,42,19.80
2012,09,20,10,43,19.90
2012,09,20,10,44,19.90
2012,09,20,10,45,20.00
2012,09,20,10,46,20.00
2012,09,20,10,47,20.10
2012,09,20,10,48,20.20
2012,09,20,10,49,20.20
2012,09,20,10,50,20.20
2012,09,20,10,51,20.30
2012,09,20,10,52,20.30
2012,09,20,10,53,20.30
2012,09,20,10,54,20.40
2012,09,20,10,55,20.50
2012,09,20,10,56,20.60
2012,09,20,10,57,20.70
2012,09,20,10,58,20.80
2012,09,20,10,59,20.90
2012,09,20,11,00,21.00
2012,09,20,11,01,21.10
2012,09,20,11,02,21.10
2012,09,20,11,03,21.20
2012,09,20,11,04,21.20
2012,09,20,11,05,21.30
2012,09,20,11,06,21.30
2012,09,20,11,07,21.40
2012,09,20,11,08,21.40
2012,09,20,11,09,21.40
2012,09,20,11,10,21.40
2012,09,20,11,11,21.30
2012,09,20,11,12,21.30
2012,09,20,11,13,21.30
2012,09,20,11,14,21.30
2012,09,20,11,15,21.30
2012,09,20,11,16,21.30
2012,09,20,11,17,21.30
2012,09,20,11,18,21.20
2012,09,20,11,19,21.20
2012,09,20,11,20,21.30
2012,09,20,11,21,21.30
2012,09,20,11,22,21.30
2012,09,20,11,23,21.40
2012,09,20,11,24,21.40
2012,09,20,11,25,21.40
2012,09,20,11,26,21.40
2012,09,20,11,27,21.50
2012,09,20,11,28,21.50
2012,09,20,11,29,21.60
2012,09,20,11,30,21.60
2012,09,20,11,31,21.70
2012,09,20,11,32,21.80
2012,09,20,11,33,21.80
2012,09,20,11,34,21.80
2012,09,20,11,35,21.80
2012,09,20,11,36,21.80
2012,09,20,11,37,21.80
2012,09,20,11,38,21.90
2012,09,20,11,39,21.90
2012,09,20,11,40,22.00
2012,09,20,11,41,22.00
2012,09,20,11,42,22.10
2012,09,20,11,43,22.10
2012,09,20,11,44,22.20
2012,09,20,11,45,22.20
2012,09,20,11,46,22.30
2012,09,20,11,47,22.30
2012,09,20,11,48,22.40
2012,09,20,11,49,22.40
2012,09,20,11,50,22.50
2012,09,20,11,51,22.50
2012,09,20,11,52,22.50
2012,09,20,11,53,22.40
2012,09,20,11,54,22.40
2012,09,20,11,55,22.40
2012,09,20,11,56,22.50
2012,09,20,11,57,22.50
2012,09,20,11,58,22.60
2012,09,20,11,59,22.70
2012,09,20,12,00,22.70
2012,09,20,12,01,22.70
2012,09,20,12,02,22.70
2012,09,20,12,03,22.70
2012,09,20,12,04,22.60
2012,09,20,12,05,22.60
2012,09,20,12,06,22.60
2012,09,20,12,07,22.60
2012,09,20,12,08,22.60
2012,09,20,12,09,22.60
2012,09,20,12,10,22.60
2012,09,20,12,11,22.60
2012,09,20,12,12,22.70
2012,09,20,12,13,22.80
2012,09,20,12,14,22.80
2012,09,20,12,15,22.90
2012,09,20,12,16,22.90
2012,09,20,12,17,22.90
2012,09,20,12,18,22.90
2012,09,20,12,19,22.90
2012,09,20,12,20,22.90
2012,09,20,12,21,23.00
2012,09,20,12,22,23.00
2012,09,20,12,23,23.10
2012,09,20,12,24,23.20
2012,09,20,12,25,23.20
2012,09,20,12,26,23.30
2012,09,20,12,27,23.30
2012,09,20,12,28,23.40
2012,09,20,12,29,23.40
2012,09,20,12,30,23.40
2012,09,20,12,31,23.40
2012,09,20,12,32,23.30
2012,09,20,12,33,23.30
2012,09,20,12,34,23.40
2012,09,20,12,35,23.40
2012,09,20,12,36,23.40
2012,09,20,12,37,23.40
2012,09,20,12,38,23.40
2012,09,20,12,39,23.40
2012,09,20,12,40,23.40
2012,09,20,12,41,23.40
2012,09,20,12,42,23.40
2012,09,20,12,43,23.40
2012,09,20,12,44,23.40
2012,09,20,12,45,23.40
2012,09,20,12,46,23.40
2012,09,20,12,47,23.40
2012,09,20,12,48,23.40
2012,09,20,12,49,23.40
2012,09,20,12,50,23.50
2012,09,20,12,51,23.50
2012,09,20,12,52,23.60
2012,09,20,12,53,23.60
2012,09,20,12,54,23.60
2012,09,20,12,55,23.70
2012,09,20,12,56,23.70
2012,09,20,12,57,23.70
2012,09,20,12,58,23.70
2012,09,20,12,59,23.70
2012,09,20,13,00,23.70
2012,09,20,13,01,23.80
2012,09,20,13,02,23.80
2012,09,20,13,03,23.80
2012,09,20,13,04,23.80
2012,09,20,13,05,23.90
2012,09,20,13,06,24.00
2012,09,20,13,07,24.00
2012,09,20,13,08,24.10
2012,09,20,13,09,24.20
2012,09,20,13,10,24.20
2012,09,20,13,11,24.30
2012,09,20,13,12,24.30
2012,09,20,13,13,24.30
2012,09,20,13,14,24.30
2012,09,20,13,15,24.40
2012,09,20,13,16,24.40
2012,09,20,13,17,24.40
2012,09,20,13,18,24.40
2012,09,20,13,19,24.40
2012,09,20,13,20,24.40
2012,09,20,13,21,24.40
2012,09,20,13,22,24.50
2012,09,20,13,23,24.50
2012,09,20,13,24,24.60
2012,09,20,13,25,24.60
2012,09,20,13,26,24.50
2012,09,20,13,27,24.50
2012,09,20,13,28,24.50
2012,09,20,13,29,24.60
2012,09,20,13,30,24.70
2012,09,20,13,31,24.70
2012,09,20,13,32,24.80
2012,09,20,13,33,24.90
2012,09,20,13,34,25.00
2012,09,20,13,35,25.00
2012,09,20,13,36,25.10
2012,09,20,13,37,25.20
2012,09,20,13,38,25.20
2012,09,20,13,39,25.20
2012,09,20,13,40,25.20
2012,09,20,13,41,25.30
2012,09,20,13,42,25.30
2012,09,20,13,43,25.30
2012,09,20,13,44,25.30
2012,09,20,13,45,25.20
2012,09,20,13,46,25.20
2012,09,20,13,47,25.20
2012,09,20,13,48,25.20
2012,09,20,13,49,25.10
2012,09,20,13,50,25.00
2012,09,20,13,51,24.90
2012,09,20,13,52,24.80
2012,09,20,13,53,24.80
2012,09,20,13,54,24.80
2012,09,20,13,55,24.80
2012,09,20,13,56,24.80
2012,09,20,13,57,24.80
2012,09,20,13,58,24.80
2012,09,20,13,59,24.80
2012,09,20,14,00,24.80
2012,09,20,14,01,24.80
2012,09,20,14,02,24.80
2012,09,20,14,03,24.80
2012,09,20,14,04,24.80
2012,09,20,14,05,24.90
2012,09,20,14,06,24.90
2012,09,20,14,07,25.00
2012,09,20,14,08,25.10
2012,09,20,14,09,25.00
2012,09,20,14,10,25.00
2012,09,20,14,11,25.00
2012,09,20,14,12,24.90
2012,09,20,14,13,24.90
2012,09,20,14,14,24.80
2012,09,20,14,15,24.80
2012,09,20,14,16,24.80
2012,09,20,14,17,24.80
2012,09,20,14,18,24.80
2012,09,20,14,19,24.80
2012,09,20,14,20,24.80
2012,09,20,14,21,24.80
2012,09,20,14,22,24.80
2012,09,20,14,23,24.80
2012,09,20,14,24,24.80
2012,09,20,14,25,24.80
2012,09,20,14,26,24.90
2012,09,20,14,27,24.90
2012,09,20,14,28,24.90
2012,09,20,14,29,24.90
2012,09,20,14,30,24.90
2012,09,20,14,31,25.00
2012,09,20,14,32,25.00
2012,09,20,14,33,25.10
2012,09,20,14,34,25.10
2012,09,20,14,35,25.20
2012,09,20,14,36,25.20
2012,09,20,14,37,25.30
2012,09,20,14,38,25.30
2012,09,20,14,39,25.30
2012,09,20,14,40,25.30
2012,09,20,14,41,25.20
2012,09,20,14,42,25.20
2012,09,20,14,43,25.30
2012,09,20,14,44,25.30
2012,09,20,14,45,25.30
2012,09,20,14,46,25.30
2012,09,20,14,47,25.30
2012,09,20,14,48,25.40
2012,09,20,14,49,25.50
2012,09,20,14,50,25.50
2012,09,20,14,51,25.60
2012,09,20,14,52,25.60
2012,09,20,14,53,25.60
2012,09,20,14,54,25.60
2012,09,20,14,55,25.60
2012,09,20,14,56,25.60
2012,09,20,14,57,25.50
2012,09,20,14,58,25.40
2012,09,20,14,59,25.40
2012,09,20,15,00,25.40
2012,09,20,15,01,25.40
2012,09,20,15,02,25.40
2012,09,20,15,03,25.40
2012,09,20,15,04,25.40
2012,09,20,15,05,25.40
2012,09,20,15,06,25.40
2012,09,20,15,07,25.50
2012,09,20,15,08,25.50
2012,09,20,15,09,25.60
2012,09,20,15,10,25.60
2012,09,20,15,11,25.70
2012,09,20,15,12,25.70
2012,09,20,15,13,25.70
2012,09,20,15,14,25.70
2012,09,20,15,15,25.70
2012,09,20,15,16,25.70
2012,09,20,15,17,25.70
2012,09,20,15,18,25.70
2012,09,20,15,19,25.80
2012,09,20,15,20,25.80
2012,09,20,15,21,25.90
2012,09,20,15,22,26.00
2012,09,20,15,23,26.10
2012,09,20,15,24,26.10
2012,09,20,15,25,26.20
2012,09,20,15,26,26.20
2012,09,20,15,27,26.20
2012,09,20,15,28,26.20
2012,09,20,15,29,26.20
2012,09,20,15,30,26.20
2012,09,20,15,31,26.20
2012,09,20,15,32,26.20
2012,09,20,15,33,26.20
2012,09,20,15,34,26.20
2012,09,20,15,35,26.20
2012,09,20,15,36,26.30
2012,09,20,15,37,26.30
2012,09,20,15,38,26.30
2012,09,20,15,39,26.30
2012,09,20,15,40,26.30
2012,09,20,15,41,26.30
2012,09,20,15,42,26.30
2012,09,20,15,43,26.30
2012,09,20,15,44,26.30
2012,09,20,15,45,26.30
2012,09,20,15,46,26.40
2012,09,20,15,47,26.40
2012,09,20,15,48,26.40
2012,09,20,15,49,26.40
2012,09,20,15,50,26.40
2012,09,20,15,51,26.40
2012,09,20,15,52,26.30
2012,09,20,15,53,26.30
2012,09,20,15,54,26.20
2012,09,20,15,55,26.20
2012,09,20,15,56,26.10
2012,09,20,15,57,26.10
2012,09,20,15,58,26.00
2012,09,20,15,59,26.00
2012,09,20,16,00,25.90
2012,09,20,16,01,25.90
2012,09,20,16,02,25.90
2012,09,20,16,03,25.90
2012,09,20,16,04,25.80
2012,09,20,16,05,25.80
2012,09,20,16,06,25.80
2012,09,20,16,07,25.80
2012,09,20,16,08,25.80
2012,09,20,16,09,25.80
2012,09,20,16,10,25.70
2012,09,20,16,11,25.70
2012,09,20,16,12,25.70
2012,09,20,16,13,25.70
2012,09,20,16,14,25.80
2012,09,20,16,15,25.80
2012,09,20,16,16,25.80
2012,09,20,16,17,25.80
2012,09,20,16,18,25.80
2012,09,20,16,19,25.80
2012,09,20,16,20,25.80
2012,09,20,16,21,25.80
2012,09,20,16,22,25.80
2012,09,20,16,23,25.90
2012,09,20,16,24,25.90
2012,09,20,16,25,26.00
2012,09,20,16,26,26.00
2012,09,20,16,27,26.10
2012,09,20,16,28,26.10
2012,09,20,16,29,26.10
2012,09,20,16,30,26.10
2012,09,20,16,31,26.10
2012,09,20,16,32,26.10
2012,09,20,16,33,26.00
2012,09,20,16,34,26.00
2012,09,20,16,35,26.00
2012,09,20,16,36,25.90
2012,09,20,16,37,25.90
2012,09,20,16,38,25.90
2012,09,20,16,39,25.90
2012,09,20,16,40,25.90
2012,09,20,16,41,25.80
2012,09,20,16,42,25.80
2012,09,20,16,43,25.70
2012,09,20,16,44,25.70
2012,09,20,16,45,25.70
2012,09,20,16,46,25.70
2012,09,20,16,47,25.70
2012,09,20,16,48,25.80
2012,09,20,16,49,25.80
2012,09,20,16,50,25.80
2012,09,20,16,51,25.90
2012,09,20,16,52,25.80
2012,09,20,16,53,25.80
2012,09,20,16,54,25.80
2012,09,20,16,55,25.80
2012,09,20,16,56,25.80
2012,09,20,16,57,25.80
2012,09,20,16,58,25.70
2012,09,20,16,59,25.70
2012,09,20,17,00,25.70
2012,09,20,17,01,25.70
2012,09,20,17,02,25.70
2012,09,20,17,03,25.70
2012,09,20,17,04,25.70
2012,09,20,17,05,25.70
2012,09,20,17,06,25.70
2012,09,20,17,07,25.60
2012,09,20,17,08,25.60
2012,09,20,17,09,25.60
2012,09,20,17,10,25.60
2012,09,20,17,11,25.60
2012,09,20,17,12,25.60
2012,09,20,17,13,25.60
2012,09,20,17,14,25.60
2012,09,20,17,15,25.60
2012,09,20,17,16,25.60
2012,09,20,17,17,25.60
2012,09,20,17,18,25.60
2012,09,20,17,19,25.60
2012,09,20,17,20,25.60
2012,09,20,17,21,25.60
2012,09,20,17,22,25.50
2012,09,20,17,23,25.50
2012,09,20,17,24,25.50
2012,09,20,17,25,25.50
2012,09,20,17,26,25.40
2012,09,20,17,27,25.40
2012,09,20,17,28,25.40
2012,09,20,17,29,25.30
2012,09,20,17,30,25.30
2012,09,20,17,31,25.20
2012,09,20,17,32,25.20
2012,09,20,17,33,25.10
2012,09,20,17,34,25.10
2012,09,20,17,35,25.10
2012,09,20,17,36,25.00
2012,09,20,17,37,24.90
2012,09,20,17,38,24.90
2012,09,20,17,39,24.80
2012,09,20,17,40,24.80
2012,09,20,17,41,24.70
2012,09,20,17,42,24.70
2012,09,20,17,43,24.60
2012,09,20,17,44,24.60
2012,09,20,17,45,24.50
2012,09,20,17,46,24.40
2012,09,20,17,47,24.40
2012,09,20,17,48,24.40
2012,09,20,17,49,24.30
2012,09,20,17,50,24.20
2012,09,20,17,51,24.10
2012,09,20,17,52,24.10
2012,09,20,17,53,24.00
2012,09,20,17,54,23.90
2012,09,20,17,55,23.80
2012,09,20,17,56,23.80
2012,09,20,17,57,23.70
2012,09,20,17,58,23.70
2012,09,20,17,59,23.60
2012,09,20,18,00,23.50
2012,09,20,18,01,23.50
2012,09,20,18,02,23.40
2012,09,20,18,03,23.40
2012,09,20,18,04,23.30
2012,09,20,18,05,23.20
2012,09,20,18,06,23.20
2012,09,20,18,07,23.10
2012,09,20,18,08,23.10
2012,09,20,18,09,23.00
2012,09,20,18,10,22.90
2012,09,20,18,11,22.90
2012,09,20,18,12,22.80
2012,09,20,18,13,22.80
2012,09,20,18,14,22.70
2012,09,20,18,15,22.70
2012,09,20,18,16,22.70
2012,09,20,18,17,22.60
2012,09,20,18,18,22.60
2012,09,20,18,19,22.50
2012,09,20,18,20,22.50
2012,09,20,18,21,22.40
2012,09,20,18,22,22.40
2012,09,20,18,23,22.40
2012,09,20,18,24,22.30
2012,09,20,18,25,22.30
2012,09,20,18,26,22.20
2012,09,20,18,27,22.20
2012,09,20,18,28,22.10
2012,09,20,18,29,22.10
2012,09,20,18,30,22.00
2012,09,20,18,31,22.00
2012,09,20,18,32,21.90
2012,09,20,18,33,21.80
2012,09,20,18,34,21.80
2012,09,20,18,35,21.80
2012,09,20,18,36,21.70
2012,09,20,18,37,21.70
2012,09,20,18,38,21.60
2012,09,20,18,39,21.60
2012,09,20,18,40,21.50
2012,09,20,18,41,21.50
2012,09,20,18,42,21.40
2012,09,20,18,43,21.40
2012,09,20,18,44,21.30
2012,09,20,18,45,21.30
2012,09,20,18,46,21.30
2012,09,20,18,47,21.20
2012,09,20,18,48,21.20
2012,09,20,18,49,21.10
2012,09,20,18,50,21.10
2012,09,20,18,51,21.10
2012,09,20,18,52,21.00
2012,09,20,18,53,21.00
2012,09,20,18,54,20.90
2012,09,20,18,55,20.90
2012,09,20,18,56,20.80
2012,09,20,18,57,20.80
2012,09,20,18,58,20.80
2012,09,20,18,59,20.70
2012,09,20,19,00,20.70
2012,09,20,19,01,20.60
2012,09,20,19,02,20.60
2012,09,20,19,03,20.50
2012,09,20,19,04,20.40
2012,09,20,19,05,20.40
2012,09,20,19,06,20.30
2012,09,20,19,07,20.30
2012,09,20,19,08,20.20
2012,09,20,19,09,20.20
2012,09,20,19,10,20.20
2012,09,20,19,11,20.10
2012,09,20,19,12,20.10
2012,09,20,19,13,20.10
2012,09,20,19,14,20.10
2012,09,20,19,15,20.10
2012,09,20,19,16,20.10
2012,09,20,19,17,20.10
2012,09,20,19,18,20.10
2012,09,20,19,19,20.10
2012,09,20,19,20,20.10
2012,09,20,19,21,20.10
2012,09,20,19,22,20.10
